Location: Poughquag
(41.6090°N, 73.6820°W)
Time: 09:53:49
(UTC-05:00)

SR - Pass Details

Date: 13 December 2023
Orbit: 574 x 868 km, 66.7° (Epoch: 25 February)

Event Time Altitude Azimuth Distance (km) Brightness Sun altitude
Rises 08:11:29 0° 177° (S) 3,240 ? 8.0°
Reaches altitude 10° 08:14:05 10° 167° (SSE) 2,362 ? 8.4°
Maximum altitude 08:18:45 29° 108° (ESE) 1,474 ? 9.0°
Drops below altitude 10° 08:23:39 10° 50° (NE) 2,492 ? 9.7°
Sets 08:26:27 0° 40° (NE) 3,451 ? 10.1°
